GFSNW_500_temp_114.txt.gz
Temp
-13 -13 -13 -13 -13 -14 -14 -15 -14 -15 -15 -15 -15 -15 -15 -15 -15 -15 -15 -15 -15 -15 -16 -16 -16 -16 -16 -16 -16 -16 -16 -16 -16 -16 -16 -15 -15 -15 -15 -14 -14 -14 -14 -13
-13 -13 -13 -13 -13 -13 -13 -14 -14 -14 -14 -15 -15 -15 -15 -15 -15 -15 -15 -15 -15 -15 -15 -15 -15 -15 -15 -15 -15 -15 -15 -15 -15 -15 -15 -15 -15 -15 -15 -14 -14 -14 -13 -13
-13 -13 -13 -13 -13 -13 -13 -13 -13 -14 -14 -14 -14 -15 -15 -15 -15 -15 -15 -15 -15 -15 -15 -15 -15 -15 -15 -15 -15 -15 -15 -15 -15 -15 -15 -14 -15 -15 -14 -14 -14 -14 -14 -13
-13 -13 -13 -13 -12 -13 -12 -13 -13 -13 -13 -13 -13 -14 -14 -14 -14 -14 -14 -14 -14 -14 -14 -14 -14 -14 -14 -14 -14 -14 -14 -15 -14 -15 -14 -14 -13 -13 -13 -13 -14 -13 -15 -13
-13 -13 -13 -13 -12 -12 -12 -12 -12 -12 -13 -13 -13 -13 -13 -13 -13 -13 -13 -13 -13 -14 -14 -14 -14 -14 -14 -14 -14 -14 -14 -14 -14 -14 -15 -14 -13 -14 -13 -13 -13 -13 -13 -14
-13 -13 -12 -12 -12 -12 -12 -12 -12 -12 -12 -12 -12 -13 -13 -13 -13 -13 -13 -13 -13 -13 -13 -13 -13 -13 -13 -13 -12 -12 -12 -12 -12 -13 -13 -13 -13 -13 -13 -13 -14 -14 -14 -14
-12 -13 -12 -12 -12 -12 -12 -12 -12 -11 -11 -12 -12 -12 -12 -12 -12 -12 -13 -13 -13 -13 -13 -13 -13 -12 -12 -12 -12 -12 -12 -12 -12 -12 -12 -12 -12 -12 -12 -12 -13 -13 -13 -14
-12 -12 -12 -12 -12 -11 -11 -11 -11 -11 -11 -11 -11 -11 -11 -12 -12 -12 -12 -12 -12 -12 -12 -12 -12 -12 -12 -12 -12 -12 -12 -12 -12 -11 -12 -12 -12 -12 -12 -12 -12 -12 -12 -12
-12 -12 -12 -12 -11 -11 -11 -11 -11 -11 -11 -11 -11 -11 -11 -11 -11 -11 -11 -11 -11 -11 -11 -11 -11 -11 -11 -11 -11 -11 -12 -12 -12 -11 -11 -12 -12 -12 -12 -12 -12 -12 -12 -12
-12 -11 -11 -11 -11 -11 -10 -11 -11 -11 -11 -11 -11 -11 -11 -11 -11 -11 -10 -10 -10 -11 -11 -11 -11 -11 -11 -11 -11 -11 -12 -12 -12 -12 -11 -12 -12 -12 -12 -12 -12 -12 -12 -12
-12 -12 -11 -11 -11 -11 -11 -11 -11 -11 -11 -11 -11 -11 -11 -11 -11 -11 -11 -11 -10 -11 -11 -11 -11 -11 -12 -12 -12 -12 -12 -12 -12 -12 -12 -12 -12 -12 -12 -12 -12 -12 -12 -12
-12 -12 -12 -11 -11 -11 -10 -11 -11 -11 -11 -11 -11 -12 -12 -11 -11 -11 -11 -11 -11 -11 -11 -11 -11 -11 -11 -11 -12 -12 -12 -12 -12 -12 -12 -12 -12 -12 -12 -12 -12 -12 -12 -13
-12 -12 -12 -12 -11 -11 -11 -11 -11 -11 -11 -11 -11 -11 -12 -12 -12 -11 -11 -12 -11 -11 -11 -12 -12 -12 -11 -11 -11 -12 -12 -12 -12 -12 -13 -12 -12 -12 -13 -12 -13 -13 -13 -13
-12 -12 -12 -12 -12 -11 -11 -11 -11 -11 -11 -11 -11 -11 -11 -11 -11 -11 -11 -12 -11 -11 -11 -12 -12 -12 -11 -11 -12 -13 -13 -12 -11 -12 -13 -12 -13 -13 -13 -13 -13 -13 -13 -13
-14 -13 -12 -12 -12 -12 -12 -11 -11 -11 -11 -11 -12 -12 -11 -11 -11 -11 -11 -11 -11 -11 -11 -11 -11 -12 -12 -11 -11 -13 -13 -12 -11 -11 -11 -12 -12 -13 -13 -13 -13 -13 -13 -13
-14 -14 -14 -13 -13 -12 -12 -12 -11 -11 -11 -11 -11 -12 -13 -12 -12 -12 -12 -12 -11 -11 -11 -12 -12 -11 -11 -11 -11 -13 -12 -13 -13 -12 -12 -12 -12 -12 -12 -13 -13 -13 -13 -13
-15 -15 -14 -14 -13 -13 -13 -12 -11 -11 -11 -10 -10 -11 -13 -13 -13 -13 -13 -12 -12 -12 -11 -11 -11 -12 -12 -12 -12 -12 -12 -12 -12 -12 -12 -12 -12 -12 -12 -12 -13 -13 -13 -14
-16 -16 -15 -15 -14 -13 -13 -13 -12 -11 -11 -10 -10 -10 -11 -13 -13 -13 -13 -13 -13 -12 -11 -12 -12 -12 -13 -13 -12 -13 -12 -12 -12 -12 -12 -13 -13 -13 -12 -13 -13 -13 -14 -14
-16 -16 -16 -15 -15 -14 -14 -14 -13 -12 -12 -11 -11 -11 -11 -11 -12 -13 -13 -13 -12 -12 -11 -12 -12 -11 -13 -14 -13 -13 -13 -13 -13 -13 -13 -13 -13 -13 -13 -13 -14 -14 -14 -14
-16 -16 -16 -16 -16 -15 -15 -14 -13 -13 -13 -12 -12 -13 -12 -12 -12 -13 -13 -13 -13 -12 -12 -12 -11 -11 -14 -14 -14 -14 -13 -13 -13 -13 -14 -13 -13 -13 -13 -14 -14 -14 -14 -15
-16 -16 -16 -16 -16 -15 -15 -15 -14 -13 -13 -13 -13 -13 -13 -13 -14 -14 -14 -14 -14 -13 -12 -13 -12 -11 -14 -14 -14 -14 -15 -14 -14 -14 -14 -14 -14 -14 -14 -14 -14 -14 -14 -15
-18 -17 -16 -15 -15 -15 -15 -14 -14 -14 -14 -14 -14 -14 -14 -14 -14 -15 -14 -14 -14 -14 -13 -13 -12 -13 -16 -14 -14 -14 -14 -15 -16 -16 -15 -15 -15 -15 -15 -15 -15 -14 -15 -15
-19 -19 -18 -16 -15 -15 -14 -14 -14 -15 -16 -16 -16 -16 -16 -16 -17 -17 -17 -17 -17 -16 -15 -13 -13 -17 -17 -16 -16 -16 -15 -16 -17 -17 -17 -17 -16 -16 -16 -16 -16 -16 -16 -15
-22 -21 -20 -18 -16 -14 -16 -17 -18 -18 -18 -18 -18 -19 -19 -18 -18 -19 -19 -19 -17 -16 -15 -17 -19 -18 -18 -18 -18 -17 -17 -17 -18 -18 -18 -18 -18 -17 -17 -17 -17 -17 -17 -17
-24 -23 -22 -18 -18 -19 -20 -20 -20 -21 -21 -21 -21 -21 -21 -21 -21 -21 -21 -22 -21 -19 -20 -22 -22 -22 -20 -20 -20 -20 -20 -20 -19 -19 -19 -19 -19 -18 -18 -18 -17 -17 -17 -17
-25 -24 -22 -21 -21 -22 -22 -23 -23 -23 -23 -23 -23 -23 -23 -23 -23 -23 -22 -22 -21 -21 -23 -23 -22 -21 -21 -21 -21 -21 -20 -20 -21 -20 -20 -20 -20 -19 -19 -19 -19 -18 -18 -18
-26 -24 -23 -23 -23 -23 -23 -23 -24 -24 -24 -24 -24 -25 -25 -25 -24 -22 -22 -22 -22 -23 -23 -24 -24 -24 -23 -23 -22 -22 -22 -22 -21 -21 -21 -21 -21 -21 -20 -19 -20 -19 -19 -19

GFSNW_500_temp_117.txt.gz
Temp
-13 -13 -12 -13 -13 -13 -14 -14 -14 -14 -15 -15 -15 -15 -15 -15 -15 -15 -15 -15 -16 -16 -16 -16 -16 -15 -15 -15 -15 -15 -15 -15 -15 -15 -15 -15 -15 -15 -15 -14 -14 -14 -14 -13
-13 -13 -13 -12 -12 -13 -13 -13 -14 -14 -14 -15 -15 -15 -15 -15 -15 -15 -15 -15 -15 -15 -15 -15 -15 -15 -15 -15 -15 -15 -15 -15 -15 -15 -15 -14 -15 -15 -14 -14 -14 -14 -13 -14
-13 -13 -13 -13 -12 -12 -12 -13 -13 -13 -14 -14 -14 -14 -14 -14 -14 -14 -14 -14 -14 -14 -14 -14 -14 -14 -14 -14 -14 -14 -14 -14 -14 -14 -14 -13 -14 -14 -14 -14 -13 -13 -13 -13
-12 -13 -13 -12 -12 -12 -12 -12 -12 -13 -13 -13 -13 -13 -13 -13 -13 -13 -13 -13 -13 -13 -14 -14 -14 -14 -14 -14 -14 -14 -14 -14 -14 -14 -13 -13 -13 -13 -13 -13 -13 -12 -13 -13
-13 -13 -12 -12 -12 -12 -12 -12 -12 -12 -12 -12 -12 -13 -13 -13 -13 -13 -13 -13 -13 -13 -13 -13 -13 -13 -13 -13 -13 -12 -13 -12 -13 -13 -13 -12 -12 -12 -12 -12 -12 -12 -12 -13
-13 -12 -13 -12 -12 -12 -12 -12 -12 -12 -12 -12 -12 -12 -12 -12 -12 -12 -12 -13 -12 -12 -12 -12 -12 -12 -12 -12 -12 -12 -12 -12 -12 -12 -12 -12 -12 -12 -12 -12 -12 -12 -12 -12
-12 -13 -12 -12 -12 -12 -11 -11 -11 -11 -11 -11 -11 -11 -11 -12 -12 -12 -11 -12 -11 -12 -11 -11 -11 -11 -11 -11 -11 -11 -11 -12 -12 -12 -12 -12 -12 -12 -12 -12 -11 -11 -11 -11
-12 -12 -12 -11 -12 -11 -11 -11 -11 -11 -11 -11 -11 -11 -11 -11 -11 -11 -11 -11 -11 -10 -10 -11 -11 -11 -11 -11 -11 -11 -11 -11 -11 -11 -11 -12 -12 -12 -12 -12 -12 -12 -12 -12
-11 -12 -12 -11 -11 -11 -11 -11 -11 -11 -11 -11 -11 -11 -11 -11 -11 -11 -10 -11 -10 -10 -10 -11 -11 -11 -11 -11 -11 -11 -11 -11 -12 -11 -11 -12 -12 -12 -12 -12 -12 -12 -12 -12
-12 -11 -12 -12 -11 -11 -11 -10 -10 -10 -11 -11 -11 -11 -11 -11 -11 -11 -11 -11 -11 -11 -11 -11 -11 -11 -11 -11 -11 -11 -11 -11 -12 -12 -11 -12 -12 -12 -12 -12 -12 -12 -12 -13
-12 -12 -12 -12 -12 -11 -11 -11 -11 -11 -10 -11 -11 -12 -12 -11 -12 -12 -12 -11 -11 -11 -11 -11 -11 -11 -11 -12 -12 -12 -12 -12 -12 -11 -11 -12 -12 -12 -12 -12 -12 -12 -12 -12
-12 -12 -12 -12 -12 -12 -11 -11 -11 -11 -11 -11 -11 -11 -11 -12 -12 -11 -11 -11 -11 -11 -11 -11 -12 -12 -12 -12 -12 -12 -12 -13 -13 -12 -12 -12 -12 -12 -12 -12 -12 -13 -13 -12
-13 -13 -12 -13 -13 -12 -12 -11 -12 -11 -11 -11 -11 -11 -11 -11 -11 -11 -11 -11 -11 -11 -11 -11 -11 -11 -12 -12 -12 -12 -13 -13 -12 -10 -12 -12 -12 -12 -13 -13 -13 -13 -13 -13
-14 -14 -13 -13 -13 -13 -13 -12 -12 -12 -12 -12 -11 -11 -11 -11 -11 -11 -12 -11 -11 -11 -11 -11 -11 -11 -11 -11 -11 -12 -13 -12 -10 -11 -12 -11 -13 -13 -13 -13 -12 -13 -13 -13
-14 -14 -14 -14 -13 -13 -13 -13 -12 -12 -12 -12 -13 -12 -12 -12 -12 -11 -12 -12 -12 -12 -12 -11 -11 -11 -11 -11 -12 -13 -12 -12 -12 -12 -12 -11 -12 -13 -13 -13 -13 -12 -13 -13
-14 -15 -15 -14 -14 -13 -14 -14 -14 -12 -12 -12 -13 -13 -14 -13 -13 -13 -12 -12 -12 -11 -11 -11 -12 -12 -11 -10 -12 -13 -12 -12 -13 -12 -13 -12 -12 -12 -12 -13 -13 -13 -13 -13
-16 -15 -15 -15 -15 -14 -14 -15 -14 -13 -12 -12 -11 -13 -14 -14 -14 -14 -13 -13 -12 -12 -11 -11 -11 -12 -12 -11 -14 -13 -13 -13 -13 -13 -13 -13 -13 -13 -13 -12 -13 -13 -13 -14
-17 -16 -16 -16 -16 -15 -15 -16 -15 -14 -13 -13 -11 -11 -13 -15 -15 -14 -14 -14 -13 -13 -12 -12 -13 -12 -12 -12 -14 -14 -13 -13 -13 -13 -13 -13 -13 -14 -14 -13 -13 -13 -13 -13
-17 -17 -17 -16 -17 -16 -16 -15 -16 -15 -14 -14 -13 -14 -14 -13 -14 -14 -14 -13 -13 -13 -12 -13 -12 -12 -13 -13 -13 -13 -14 -13 -13 -14 -14 -14 -14 -14 -14 -14 -14 -14 -14 -14
-17 -17 -17 -17 -16 -16 -16 -16 -15 -15 -15 -15 -15 -15 -15 -14 -15 -14 -14 -13 -14 -13 -12 -13 -12 -12 -14 -13 -13 -13 -13 -13 -13 -13 -14 -15 -15 -15 -16 -15 -15 -15 -15 -15
-18 -18 -17 -16 -16 -16 -15 -15 -15 -15 -15 -15 -15 -15 -15 -15 -15 -15 -14 -14 -14 -13 -13 -13 -13 -13 -14 -14 -14 -13 -13 -13 -14 -15 -15 -16 -16 -16 -16 -17 -16 -16 -16 -16
-18 -18 -17 -17 -17 -16 -15 -15 -15 -15 -15 -15 -15 -16 -15 -15 -15 -15 -15 -14 -14 -14 -13 -13 -13 -15 -15 -14 -14 -14 -15 -15 -16 -16 -17 -17 -17 -18 -18 -18 -17 -17 -17 -16
-19 -18 -18 -17 -17 -16 -15 -15 -16 -16 -17 -17 -17 -17 -17 -17 -17 -16 -16 -15 -15 -15 -14 -14 -16 -19 -16 -16 -17 -16 -17 -18 -19 -19 -19 -19 -19 -19 -19 -18 -18 -17 -17 -17
-21 -20 -18 -18 -17 -16 -17 -18 -18 -19 -20 -20 -19 -19 -19 -19 -20 -20 -19 -18 -17 -16 -16 -17 -21 -20 -20 -18 -19 -19 -20 -21 -21 -21 -21 -20 -20 -20 -19 -19 -18 -19 -19 -18
-23 -22 -20 -17 -18 -19 -20 -21 -21 -21 -22 -22 -22 -22 -22 -23 -22 -21 -21 -20 -18 -18 -20 -21 -23 -21 -21 -23 -24 -24 -23 -23 -22 -22 -22 -21 -21 -21 -21 -21 -20 -19 -20 -19
-24 -23 -21 -21 -21 -22 -22 -23 -23 -23 -24 -24 -24 -25 -25 -24 -24 -22 -21 -21 -20 -22 -23 -22 -23 -23 -24 -24 -24 -23 -23 -23 -23 -22 -22 -22 -22 -22 -22 -22 -23 -21 -20 -20
-25 -22 -22 -23 -23 -23 -23 -24 -24 -25 -25 -25 -26 -27 -26 -26 -25 -23 -22 -22 -23 -23 -23 -23 -24 -25 -24 -24 -23 -23 -24 -24 -24 -24 -23 -23 -23 -23 -22 -23 -23 -23 -22 -22

GFSNW_500_temp_120.txt.gz
Temp
-13 -12 -12 -12 -12 -13 -13 -13 -14 -14 -14 -14 -15 -15 -15 -15 -15 -15 -15 -15 -15 -15 -15 -15 -15 -15 -15 -15 -15 -15 -15 -14 -14 -14 -14 -14 -14 -14 -14 -14 -14 -14 -13 -13
-12 -12 -12 -12 -12 -12 -12 -13 -13 -13 -14 -14 -14 -14 -14 -14 -14 -15 -15 -15 -15 -15 -15 -15 -15 -15 -14 -14 -14 -14 -14 -14 -14 -14 -14 -14 -14 -14 -14 -13 -13 -13 -13 -13
-13 -12 -12 -12 -12 -12 -12 -12 -12 -12 -13 -13 -13 -13 -14 -14 -14 -14 -14 -14 -14 -14 -14 -14 -14 -14 -14 -14 -14 -14 -14 -13 -13 -13 -13 -13 -13 -13 -13 -13 -13 -13 -13 -12
-12 -12 -12 -12 -12 -12 -11 -12 -12 -12 -12 -12 -12 -13 -13 -13 -13 -13 -13 -13 -13 -13 -13 -13 -13 -13 -13 -13 -13 -13 -13 -13 -12 -12 -12 -12 -12 -12 -12 -12 -12 -12 -12 -12
-12 -12 -12 -12 -13 -12 -12 -11 -11 -12 -12 -12 -12 -12 -12 -12 -12 -12 -12 -12 -12 -12 -12 -12 -12 -12 -12 -12 -12 -12 -12 -12 -12 -12 -12 -12 -12 -12 -12 -12 -12 -12 -12 -12
-12 -12 -12 -12 -12 -12 -12 -11 -11 -11 -11 -11 -12 -12 -12 -12 -12 -12 -12 -12 -12 -12 -12 -11 -11 -11 -11 -12 -12 -12 -12 -12 -12 -12 -12 -12 -12 -12 -12 -12 -12 -12 -12 -12
-12 -12 -12 -12 -11 -12 -12 -11 -11 -11 -11 -11 -11 -11 -11 -11 -11 -12 -11 -11 -11 -11 -11 -11 -11 -11 -11 -11 -11 -11 -11 -12 -12 -12 -12 -12 -12 -12 -12 -12 -12 -12 -12 -12
-12 -12 -12 -12 -12 -12 -12 -11 -11 -11 -11 -11 -11 -11 -11 -11 -11 -11 -11 -11 -10 -10 -11 -11 -11 -11 -11 -11 -11 -11 -11 -11 -11 -11 -11 -12 -12 -12 -12 -12 -12 -12 -12 -12
-12 -12 -12 -12 -12 -12 -11 -11 -11 -11 -11 -11 -11 -11 -11 -11 -11 -11 -11 -11 -11 -11 -11 -11 -11 -11 -11 -11 -11 -11 -11 -11 -11 -11 -11 -12 -12 -12 -12 -12 -12 -12 -12 -12
-13 -13 -13 -12 -12 -12 -12 -11 -11 -11 -11 -11 -11 -12 -11 -11 -12 -11 -11 -12 -11 -11 -12 -12 -12 -12 -11 -11 -11 -11 -12 -11 -11 -12 -12 -12 -12 -12 -12 -12 -12 -12 -12 -13
-13 -13 -13 -13 -13 -12 -12 -12 -12 -11 -11 -11 -11 -11 -11 -11 -11 -11 -12 -11 -11 -11 -11 -12 -12 -12 -12 -12 -12 -12 -12 -12 -12 -11 -11 -12 -12 -12 -12 -12 -12 -12 -12 -13
-14 -14 -13 -13 -13 -12 -12 -12 -12 -12 -12 -11 -12 -11 -11 -11 -12 -11 -11 -11 -11 -11 -11 -11 -11 -12 -12 -12 -11 -12 -12 -12 -11 -11 -12 -12 -11 -12 -12 -12 -12 -12 -12 -12
-14 -14 -14 -13 -14 -13 -13 -13 -12 -12 -13 -12 -11 -12 -12 -12 -12 -12 -12 -12 -11 -12 -12 -11 -11 -12 -12 -12 -12 -12 -12 -11 -10 -11 -12 -12 -12 -11 -11 -12 -12 -12 -12 -12
-15 -15 -14 -14 -14 -14 -13 -13 -13 -13 -13 -13 -12 -12 -12 -12 -12 -12 -12 -12 -12 -12 -11 -11 -11 -12 -12 -12 -12 -12 -12 -11 -11 -11 -12 -12 -12 -12 -12 -12 -12 -12 -12 -12
-17 -16 -15 -15 -14 -14 -14 -14 -13 -13 -13 -13 -13 -13 -13 -13 -13 -13 -13 -13 -13 -12 -12 -12 -12 -13 -12 -11 -13 -14 -13 -12 -12 -11 -12 -11 -13 -12 -12 -12 -13 -13 -13 -13
-15 -16 -16 -16 -15 -14 -14 -14 -14 -13 -13 -13 -14 -14 -15 -15 -14 -14 -14 -13 -13 -13 -12 -13 -13 -13 -13 -11 -12 -15 -15 -13 -11 -11 -13 -13 -13 -13 -13 -13 -13 -13 -13 -13
-16 -16 -16 -16 -16 -16 -16 -16 -15 -15 -14 -13 -13 -15 -15 -15 -15 -15 -15 -14 -14 -14 -13 -13 -14 -14 -14 -13 -14 -13 -14 -14 -14 -14 -13 -13 -13 -13 -14 -14 -14 -14 -14 -14
-17 -17 -17 -17 -17 -17 -17 -17 -16 -16 -15 -15 -14 -15 -17 -16 -16 -16 -16 -15 -15 -14 -14 -13 -14 -14 -14 -14 -14 -14 -14 -13 -14 -14 -14 -13 -12 -13 -13 -14 -14 -15 -16 -15
-18 -18 -18 -18 -18 -17 -17 -18 -17 -17 -16 -16 -15 -17 -16 -16 -16 -16 -16 -16 -15 -15 -14 -14 -14 -14 -14 -14 -14 -14 -13 -13 -13 -14 -14 -14 -14 -14 -14 -14 -15 -16 -17 -17
-18 -18 -18 -18 -18 -18 -17 -17 -17 -17 -17 -16 -16 -16 -16 -16 -16 -16 -16 -16 -16 -15 -14 -15 -14 -14 -14 -14 -14 -14 -14 -14 -14 -14 -14 -14 -15 -15 -15 -17 -17 -18 -18 -18
-18 -18 -18 -18 -18 -18 -17 -17 -16 -16 -16 -17 -17 -16 -16 -16 -16 -16 -16 -16 -16 -15 -15 -15 -15 -15 -16 -15 -15 -14 -14 -15 -15 -15 -15 -15 -15 -16 -18 -19 -19 -19 -19 -19
-19 -19 -18 -18 -18 -18 -17 -17 -17 -17 -17 -17 -17 -17 -17 -17 -16 -16 -16 -16 -15 -15 -15 -14 -15 -19 -17 -16 -16 -16 -16 -16 -17 -17 -18 -17 -18 -19 -20 -21 -21 -21 -21 -20
-19 -19 -19 -19 -18 -18 -17 -17 -17 -17 -17 -18 -18 -18 -18 -18 -19 -18 -17 -17 -16 -15 -15 -15 -19 -21 -18 -17 -18 -17 -18 -19 -19 -19 -20 -21 -21 -22 -22 -22 -23 -22 -21 -21
-20 -20 -19 -19 -18 -18 -18 -18 -18 -19 -20 -21 -20 -20 -21 -21 -21 -20 -19 -19 -17 -16 -15 -17 -21 -20 -21 -20 -20 -20 -21 -21 -21 -21 -21 -22 -22 -22 -23 -23 -23 -22 -21 -21
-22 -21 -20 -19 -19 -19 -19 -20 -21 -22 -23 -23 -23 -23 -24 -24 -23 -21 -21 -21 -18 -18 -19 -22 -22 -21 -21 -22 -23 -23 -23 -22 -22 -22 -22 -22 -22 -23 -23 -23 -23 -23 -23 -22
-24 -22 -20 -20 -20 -21 -22 -22 -23 -24 -24 -25 -25 -26 -26 -25 -24 -22 -22 -21 -20 -22 -23 -23 -23 -23 -23 -23 -24 -23 -23 -23 -22 -23 -23 -22 -23 -23 -23 -23 -23 -23 -23 -23
-25 -22 -22 -23 -23 -23 -24 -24 -25 -25 -26 -26 -27 -27 -26 -25 -24 -22 -22 -22 -23 -24 -24 -24 -24 -24 -24 -24 -24 -24 -24 -23 -23 -23 -23 -23 -23 -23 -23 -23 -23 -23 -23 -23

GFSNW_500_temp_123.txt.gz
Temp
-12 -13 -13 -13 -13 -13 -13 -14 -14 -14 -14 -15 -15 -15 -15 -15 -15 -15 -15 -15 -15 -15 -15 -15 -15 -15 -15 -15 -14 -14 -14 -14 -14 -14 -14 -13 -13 -13 -13 -13 -13 -13 -13 -12
-13 -12 -12 -12 -12 -13 -13 -13 -13 -13 -14 -14 -14 -14 -14 -15 -15 -15 -15 -15 -15 -15 -15 -15 -15 -15 -14 -14 -14 -14 -14 -14 -14 -13 -13 -13 -13 -13 -13 -12 -13 -13 -12 -13
-12 -12 -12 -12 -12 -12 -12 -12 -12 -13 -13 -13 -13 -13 -14 -14 -14 -14 -14 -14 -14 -14 -14 -14 -14 -14 -14 -14 -14 -13 -13 -13 -13 -13 -12 -12 -12 -12 -12 -12 -12 -12 -12 -12
-12 -12 -12 -12 -12 -12 -12 -12 -12 -12 -12 -12 -13 -13 -13 -13 -13 -13 -14 -14 -14 -14 -14 -14 -13 -13 -13 -13 -13 -12 -12 -12 -12 -12 -12 -12 -12 -12 -12 -12 -12 -12 -12 -11
-12 -12 -12 -12 -12 -12 -12 -12 -12 -11 -11 -12 -12 -12 -12 -12 -12 -12 -12 -13 -13 -13 -13 -13 -12 -12 -12 -12 -12 -12 -12 -12 -12 -12 -12 -12 -12 -12 -12 -12 -12 -11 -11 -11
-12 -12 -12 -12 -12 -12 -12 -12 -12 -11 -11 -11 -11 -11 -11 -11 -12 -12 -12 -12 -12 -12 -12 -12 -11 -11 -11 -11 -11 -11 -11 -11 -12 -12 -12 -12 -12 -12 -12 -12 -11 -12 -12 -12
-13 -13 -12 -12 -12 -12 -12 -12 -12 -12 -11 -11 -11 -11 -11 -11 -11 -11 -11 -11 -11 -11 -11 -11 -11 -11 -11 -11 -11 -11 -12 -12 -12 -12 -12 -12 -12 -12 -12 -12 -12 -12 -12 -12
-13 -13 -13 -13 -12 -12 -12 -12 -12 -12 -12 -11 -11 -11 -11 -11 -11 -11 -11 -11 -11 -11 -11 -11 -11 -11 -11 -11 -11 -11 -11 -11 -11 -11 -12 -12 -13 -12 -12 -12 -12 -12 -12 -12
-14 -14 -13 -13 -13 -12 -12 -12 -12 -11 -12 -11 -12 -12 -12 -11 -11 -11 -11 -11 -11 -11 -11 -11 -11 -11 -11 -11 -11 -11 -11 -11 -11 -11 -11 -11 -12 -12 -12 -12 -12 -12 -12 -12
-14 -14 -14 -14 -13 -13 -13 -12 -12 -12 -11 -11 -11 -12 -12 -12 -12 -12 -11 -11 -11 -11 -11 -11 -11 -12 -11 -12 -12 -12 -12 -12 -12 -11 -11 -12 -12 -12 -12 -12 -11 -12 -12 -12
-14 -14 -14 -14 -14 -13 -13 -13 -12 -12 -12 -12 -12 -12 -12 -12 -12 -12 -12 -12 -12 -11 -12 -12 -12 -12 -12 -12 -12 -12 -12 -12 -12 -11 -11 -12 -12 -12 -12 -11 -12 -11 -11 -12
-15 -14 -14 -14 -14 -14 -14 -13 -13 -13 -12 -12 -12 -12 -12 -12 -12 -12 -12 -12 -12 -12 -11 -12 -12 -12 -12 -12 -12 -12 -12 -13 -12 -12 -12 -12 -11 -12 -12 -11 -12 -12 -12 -12
-15 -15 -15 -14 -14 -14 -14 -14 -13 -14 -13 -13 -13 -12 -12 -12 -12 -12 -12 -12 -12 -12 -12 -12 -12 -12 -12 -12 -12 -12 -13 -12 -12 -11 -13 -12 -12 -12 -12 -12 -12 -12 -12 -13
-16 -16 -15 -15 -15 -14 -14 -14 -14 -13 -13 -13 -13 -13 -13 -13 -13 -12 -12 -12 -12 -12 -12 -12 -12 -13 -12 -13 -12 -13 -14 -12 -12 -11 -11 -11 -12 -13 -13 -13 -13 -13 -13 -13
-16 -16 -16 -16 -16 -15 -15 -14 -14 -14 -13 -13 -14 -14 -14 -13 -14 -14 -14 -13 -13 -13 -13 -13 -13 -13 -13 -12 -13 -15 -14 -13 -12 -11 -12 -12 -12 -13 -14 -13 -13 -13 -13 -13
-16 -17 -16 -16 -16 -16 -16 -16 -15 -15 -14 -14 -14 -15 -15 -15 -15 -15 -15 -14 -14 -13 -13 -13 -13 -14 -14 -13 -13 -15 -14 -14 -14 -14 -13 -13 -13 -13 -13 -13 -13 -14 -14 -14
-16 -16 -17 -16 -16 -16 -16 -16 -16 -16 -16 -15 -14 -16 -17 -17 -16 -15 -16 -15 -15 -15 -14 -14 -15 -15 -15 -14 -14 -14 -14 -14 -15 -14 -14 -14 -14 -13 -14 -14 -14 -14 -14 -14
-16 -17 -17 -17 -17 -17 -17 -16 -17 -17 -17 -16 -15 -17 -18 -18 -17 -17 -16 -16 -16 -16 -16 -15 -16 -15 -15 -15 -15 -15 -15 -15 -15 -15 -15 -15 -15 -14 -14 -14 -14 -15 -15 -15
-17 -17 -17 -17 -18 -18 -18 -17 -16 -17 -17 -17 -18 -18 -18 -17 -18 -18 -17 -17 -16 -16 -15 -16 -16 -16 -17 -16 -17 -16 -16 -16 -16 -16 -15 -15 -15 -15 -15 -14 -15 -15 -15 -16
-19 -18 -18 -18 -19 -19 -18 -18 -17 -17 -18 -18 -18 -18 -18 -18 -18 -18 -17 -17 -16 -16 -16 -16 -16 -16 -17 -17 -17 -17 -17 -17 -16 -16 -16 -16 -16 -16 -16 -16 -16 -17 -17 -18
-19 -19 -19 -18 -19 -19 -19 -18 -17 -17 -17 -18 -18 -18 -18 -17 -17 -17 -17 -17 -17 -16 -16 -16 -15 -16 -17 -17 -17 -17 -17 -16 -17 -17 -18 -17 -17 -17 -18 -19 -19 -19 -19 -20
-20 -19 -19 -19 -18 -18 -18 -18 -18 -18 -18 -18 -18 -18 -18 -18 -17 -17 -17 -17 -17 -16 -16 -15 -15 -20 -19 -17 -17 -18 -18 -18 -19 -20 -20 -20 -20 -20 -20 -20 -21 -21 -22 -23
-20 -20 -19 -19 -19 -18 -18 -18 -19 -19 -19 -19 -19 -19 -19 -18 -18 -18 -18 -17 -17 -17 -16 -16 -17 -21 -20 -19 -19 -19 -19 -19 -20 -21 -22 -21 -21 -22 -22 -22 -22 -22 -22 -23
-21 -21 -20 -20 -19 -18 -19 -19 -20 -20 -21 -21 -21 -22 -22 -21 -20 -19 -19 -19 -18 -18 -17 -18 -19 -20 -22 -22 -21 -20 -21 -22 -22 -22 -23 -23 -22 -22 -23 -23 -23 -23 -23 -22
-22 -22 -21 -20 -20 -20 -20 -21 -21 -22 -23 -24 -23 -23 -23 -22 -21 -20 -20 -20 -19 -18 -20 -22 -22 -22 -22 -22 -22 -22 -23 -22 -23 -23 -23 -23 -23 -23 -23 -23 -23 -23 -23 -22
-22 -21 -21 -21 -21 -21 -22 -23 -24 -25 -25 -26 -26 -26 -25 -23 -22 -21 -22 -21 -20 -22 -24 -24 -23 -23 -24 -24 -24 -23 -23 -23 -23 -24 -24 -23 -23 -24 -23 -23 -23 -23 -23 -23
-22 -22 -22 -22 -22 -23 -24 -24 -25 -26 -26 -26 -26 -26 -25 -24 -24 -22 -23 -23 -25 -25 -25 -25 -25 -24 -24 -24 -24 -24 -24 -24 -24 -24 -24 -24 -24 -24 -24 -24 -24 -24 -23 -23

GFSNW_500_temp_126.txt.gz
Temp
-13 -13 -13 -13 -13 -13 -13 -14 -14 -14 -14 -14 -15 -15 -15 -15 -15 -15 -15 -15 -15 -15 -15 -15 -15 -15 -15 -14 -14 -14 -14 -14 -14 -13 -13 -13 -13 -13 -13 -13 -13 -13 -13 -13
-13 -13 -13 -13 -13 -13 -13 -13 -13 -13 -14 -14 -14 -14 -14 -14 -14 -15 -15 -15 -15 -15 -15 -15 -15 -14 -14 -14 -14 -14 -14 -14 -13 -13 -13 -13 -13 -12 -12 -12 -12 -12 -11 -11
-13 -13 -12 -12 -12 -13 -12 -12 -12 -13 -13 -13 -14 -14 -14 -14 -14 -14 -14 -14 -14 -14 -14 -14 -14 -14 -14 -14 -14 -14 -14 -13 -13 -13 -13 -13 -13 -12 -12 -12 -12 -12 -11 -12
-13 -13 -13 -12 -12 -12 -12 -12 -12 -12 -12 -13 -13 -13 -13 -14 -14 -14 -14 -14 -14 -14 -14 -14 -14 -14 -14 -14 -13 -13 -13 -13 -12 -12 -12 -12 -12 -12 -12 -12 -12 -12 -12 -12
-13 -13 -13 -13 -12 -12 -12 -12 -12 -12 -12 -12 -12 -12 -12 -12 -13 -13 -13 -13 -14 -14 -13 -13 -13 -13 -13 -12 -12 -12 -12 -12 -12 -12 -11 -12 -12 -12 -12 -12 -12 -12 -12 -12
-13 -13 -13 -13 -13 -13 -12 -12 -12 -12 -12 -12 -12 -12 -12 -12 -11 -12 -12 -12 -12 -12 -12 -12 -12 -11 -12 -12 -11 -12 -12 -12 -12 -12 -11 -12 -12 -12 -12 -12 -12 -12 -12 -12
-13 -13 -13 -13 -14 -13 -13 -12 -12 -12 -12 -12 -12 -12 -11 -11 -11 -11 -11 -11 -11 -11 -11 -11 -11 -11 -11 -11 -11 -11 -11 -11 -11 -12 -12 -12 -12 -12 -12 -12 -12 -12 -12 -11
-14 -14 -14 -14 -13 -14 -14 -13 -13 -12 -12 -12 -12 -12 -12 -12 -11 -11 -11 -11 -11 -11 -11 -11 -11 -11 -11 -11 -11 -11 -11 -11 -11 -12 -12 -12 -12 -12 -12 -12 -12 -12 -12 -12
-14 -14 -14 -13 -13 -13 -14 -14 -14 -13 -12 -12 -12 -12 -12 -12 -12 -12 -11 -11 -11 -11 -11 -11 -11 -11 -11 -11 -11 -11 -11 -11 -11 -11 -11 -11 -12 -12 -12 -12 -12 -12 -12 -12
-14 -14 -14 -14 -14 -13 -13 -14 -13 -14 -13 -13 -13 -12 -12 -12 -12 -12 -12 -12 -12 -12 -11 -11 -11 -11 -12 -12 -12 -12 -12 -11 -11 -11 -11 -12 -12 -12 -12 -12 -11 -11 -12 -12
-14 -14 -14 -14 -14 -14 -14 -14 -14 -14 -14 -13 -13 -13 -12 -12 -12 -12 -12 -12 -12 -12 -12 -12 -12 -12 -12 -12 -12 -12 -12 -12 -12 -12 -12 -13 -12 -12 -12 -12 -12 -12 -12 -12
-15 -15 -14 -14 -14 -14 -14 -14 -13 -14 -14 -14 -13 -13 -13 -13 -13 -12 -12 -12 -12 -12 -12 -12 -12 -13 -12 -13 -13 -13 -13 -13 -12 -13 -13 -12 -12 -12 -12 -12 -12 -13 -13 -13
-16 -15 -15 -15 -15 -15 -14 -14 -14 -14 -14 -14 -14 -14 -13 -14 -13 -12 -13 -13 -12 -12 -12 -12 -12 -12 -12 -12 -13 -13 -13 -13 -12 -12 -14 -14 -13 -13 -12 -13 -12 -13 -14 -13
-16 -16 -16 -15 -15 -15 -14 -15 -14 -14 -14 -14 -14 -14 -14 -14 -14 -14 -14 -13 -13 -13 -13 -13 -13 -13 -13 -13 -13 -14 -14 -14 -12 -12 -13 -13 -14 -14 -14 -13 -14 -13 -13 -13
-16 -16 -16 -16 -15 -15 -15 -15 -15 -14 -15 -14 -15 -15 -15 -15 -15 -15 -14 -14 -13 -13 -13 -13 -13 -14 -14 -14 -14 -15 -15 -15 -14 -13 -13 -13 -13 -13 -14 -14 -14 -14 -14 -15
-16 -16 -16 -16 -16 -15 -15 -15 -15 -15 -14 -14 -15 -15 -15 -15 -15 -15 -15 -15 -14 -14 -14 -14 -14 -15 -15 -14 -14 -16 -16 -16 -16 -15 -15 -15 -14 -14 -14 -14 -15 -15 -15 -15
-17 -16 -16 -16 -16 -16 -15 -15 -15 -16 -15 -14 -15 -15 -16 -16 -15 -15 -16 -16 -16 -15 -15 -15 -15 -16 -16 -15 -15 -16 -16 -16 -16 -16 -16 -16 -15 -15 -15 -15 -15 -15 -15 -15
-17 -17 -16 -16 -16 -16 -16 -16 -15 -15 -15 -15 -15 -17 -17 -17 -16 -16 -17 -17 -17 -16 -16 -17 -17 -17 -17 -16 -17 -17 -16 -16 -16 -16 -16 -16 -16 -16 -16 -15 -15 -16 -15 -16
-17 -17 -17 -16 -17 -17 -17 -16 -16 -16 -16 -15 -17 -18 -18 -18 -17 -17 -17 -17 -17 -16 -17 -17 -16 -17 -17 -17 -17 -17 -17 -17 -17 -17 -17 -17 -16 -16 -16 -16 -16 -16 -16 -16
-18 -17 -17 -17 -17 -17 -17 -17 -16 -16 -16 -17 -18 -19 -18 -18 -18 -18 -18 -17 -17 -17 -17 -17 -17 -17 -17 -17 -17 -16 -16 -16 -16 -16 -17 -17 -17 -17 -17 -17 -17 -17 -17 -18
-18 -18 -17 -17 -18 -17 -17 -17 -17 -17 -17 -18 -18 -19 -19 -19 -19 -18 -18 -18 -17 -17 -17 -17 -17 -17 -17 -17 -18 -18 -17 -17 -17 -17 -17 -17 -17 -17 -17 -18 -19 -20 -20 -20
-19 -18 -18 -18 -18 -18 -18 -17 -17 -18 -19 -19 -19 -19 -19 -19 -19 -19 -18 -18 -18 -17 -17 -17 -17 -18 -18 -18 -18 -18 -18 -19 -19 -18 -18 -18 -19 -19 -19 -19 -20 -21 -22 -22
-19 -19 -19 -18 -19 -18 -17 -17 -19 -20 -20 -20 -20 -20 -20 -20 -19 -19 -19 -19 -19 -18 -18 -18 -19 -20 -20 -20 -20 -19 -19 -19 -19 -19 -20 -20 -20 -21 -22 -22 -22 -22 -22 -23
-20 -20 -20 -20 -19 -19 -19 -20 -21 -21 -21 -22 -22 -22 -22 -21 -21 -20 -21 -20 -20 -20 -19 -20 -21 -21 -22 -21 -21 -21 -20 -20 -20 -20 -21 -22 -23 -23 -23 -23 -23 -23 -23 -24
-22 -21 -21 -20 -20 -21 -21 -22 -22 -22 -23 -23 -24 -25 -23 -22 -22 -21 -21 -21 -21 -20 -21 -23 -23 -23 -23 -23 -22 -22 -21 -22 -23 -23 -23 -23 -24 -24 -23 -23 -23 -23 -24 -23
-22 -21 -21 -21 -22 -22 -22 -23 -23 -24 -25 -26 -26 -26 -25 -23 -23 -22 -22 -22 -21 -23 -25 -25 -24 -24 -23 -23 -23 -23 -24 -25 -24 -24 -24 -24 -24 -24 -24 -23 -23 -24 -24 -24
-22 -22 -22 -22 -23 -23 -23 -23 -23 -25 -25 -26 -26 -26 -25 -24 -23 -22 -22 -23 -25 -26 -26 -26 -25 -25 -25 -25 -26 -25 -25 -25 -24 -24 -24 -25 -25 -25 -24 -24 -24 -24 -24 -24

GFSNW_500_temp_129.txt.gz
Temp
-13 -13 -13 -13 -13 -13 -13 -14 -14 -14 -14 -14 -15 -15 -15 -15 -15 -15 -15 -15 -15 -15 -15 -15 -15 -15 -15 -14 -14 -14 -14 -14 -14 -14 -13 -13 -13 -13 -13 -12 -13 -12 -12 -12
-13 -13 -13 -13 -13 -13 -13 -13 -13 -14 -14 -14 -14 -14 -14 -14 -14 -15 -15 -15 -15 -15 -15 -15 -15 -15 -15 -15 -14 -14 -14 -14 -13 -13 -13 -13 -13 -12 -12 -12 -12 -12 -12 -12
-13 -13 -13 -13 -13 -12 -13 -13 -13 -13 -13 -14 -13 -14 -14 -14 -14 -14 -14 -14 -14 -14 -14 -14 -14 -14 -14 -14 -14 -14 -14 -13 -13 -13 -12 -12 -12 -12 -12 -12 -12 -12 -12 -12
-13 -13 -13 -13 -13 -13 -12 -12 -13 -13 -12 -13 -13 -13 -13 -13 -13 -13 -13 -14 -14 -14 -14 -14 -14 -14 -14 -13 -13 -13 -13 -12 -12 -12 -12 -12 -12 -12 -12 -12 -12 -12 -12 -12
-13 -13 -13 -13 -13 -13 -13 -12 -12 -12 -13 -12 -12 -12 -13 -13 -13 -13 -13 -13 -13 -13 -13 -13 -13 -13 -13 -12 -12 -12 -12 -12 -12 -12 -12 -12 -13 -12 -12 -12 -12 -12 -12 -12
-13 -13 -13 -13 -13 -13 -13 -13 -13 -12 -12 -12 -12 -12 -12 -12 -12 -12 -12 -12 -12 -12 -12 -12 -12 -12 -12 -12 -12 -12 -12 -12 -12 -13 -12 -12 -12 -12 -12 -11 -11 -11 -11 -11
-14 -13 -13 -13 -13 -13 -13 -13 -13 -13 -12 -12 -12 -12 -12 -12 -12 -12 -12 -12 -12 -11 -11 -11 -11 -11 -11 -11 -11 -11 -11 -11 -11 -12 -11 -11 -12 -11 -12 -12 -12 -11 -11 -12
-14 -14 -14 -14 -14 -14 -13 -13 -13 -13 -13 -12 -12 -12 -12 -12 -12 -12 -12 -12 -12 -12 -11 -11 -11 -11 -11 -11 -11 -11 -11 -11 -11 -11 -12 -12 -12 -12 -12 -12 -12 -12 -12 -13
-14 -14 -14 -14 -14 -14 -14 -14 -14 -13 -13 -13 -13 -13 -12 -12 -12 -12 -12 -12 -12 -12 -12 -12 -12 -12 -11 -11 -11 -11 -11 -11 -11 -11 -11 -12 -12 -12 -13 -13 -13 -13 -13 -13
-14 -14 -14 -14 -14 -14 -14 -14 -14 -14 -13 -13 -14 -13 -13 -13 -13 -12 -12 -12 -12 -12 -12 -12 -12 -12 -12 -12 -12 -12 -12 -12 -12 -12 -12 -12 -12 -12 -12 -12 -13 -13 -13 -13
-14 -14 -15 -14 -14 -14 -14 -14 -14 -14 -14 -14 -14 -14 -13 -14 -13 -13 -13 -12 -12 -12 -12 -13 -13 -12 -12 -13 -13 -13 -13 -13 -13 -13 -13 -13 -12 -12 -12 -12 -13 -13 -13 -13
-15 -15 -15 -15 -15 -15 -15 -15 -15 -15 -14 -14 -14 -14 -14 -14 -14 -13 -13 -13 -13 -13 -13 -13 -12 -13 -13 -13 -13 -13 -13 -13 -13 -13 -14 -13 -14 -13 -13 -13 -13 -14 -13 -14
-16 -16 -16 -15 -15 -15 -15 -15 -15 -15 -15 -14 -14 -14 -14 -14 -14 -14 -13 -13 -13 -13 -13 -13 -13 -13 -13 -13 -14 -14 -14 -14 -14 -14 -14 -14 -14 -14 -14 -15 -14 -14 -14 -14
-16 -16 -16 -16 -16 -15 -15 -15 -15 -15 -14 -14 -15 -15 -15 -15 -14 -14 -14 -14 -14 -14 -14 -14 -14 -14 -14 -14 -14 -15 -15 -14 -14 -13 -14 -14 -15 -15 -14 -15 -15 -15 -15 -15
-16 -16 -16 -16 -16 -16 -16 -15 -15 -15 -15 -14 -15 -15 -15 -15 -15 -14 -14 -14 -14 -14 -14 -14 -14 -15 -14 -14 -14 -16 -16 -16 -16 -14 -15 -15 -14 -15 -15 -16 -16 -16 -16 -16
-16 -16 -17 -17 -16 -16 -16 -15 -15 -15 -15 -14 -14 -15 -16 -15 -15 -14 -14 -14 -14 -14 -14 -15 -15 -15 -15 -15 -16 -17 -16 -16 -16 -17 -16 -16 -16 -16 -16 -16 -16 -15 -15 -15
-17 -17 -17 -17 -17 -17 -16 -16 -15 -15 -15 -15 -14 -15 -16 -16 -15 -15 -14 -15 -15 -15 -15 -16 -16 -16 -16 -16 -16 -17 -17 -16 -16 -16 -17 -17 -17 -17 -16 -16 -16 -16 -16 -16
-17 -17 -17 -17 -17 -17 -17 -17 -16 -15 -15 -15 -15 -16 -16 -16 -16 -16 -16 -16 -16 -16 -16 -17 -17 -17 -17 -16 -16 -17 -17 -17 -17 -17 -16 -17 -17 -17 -17 -17 -17 -17 -17 -17
-17 -17 -17 -17 -17 -17 -18 -17 -16 -16 -16 -15 -15 -17 -17 -17 -17 -16 -17 -17 -16 -16 -16 -17 -17 -18 -18 -17 -17 -17 -17 -17 -17 -17 -17 -17 -17 -17 -17 -17 -17 -17 -17 -17
-18 -18 -18 -17 -18 -18 -18 -17 -17 -17 -17 -16 -16 -18 -18 -18 -18 -18 -18 -17 -17 -17 -17 -17 -18 -18 -18 -18 -18 -18 -18 -18 -17 -17 -18 -18 -18 -18 -17 -17 -18 -18 -18 -18
-19 -19 -18 -18 -18 -18 -18 -18 -17 -17 -17 -17 -18 -18 -19 -19 -19 -18 -19 -19 -18 -18 -17 -18 -17 -18 -19 -19 -19 -18 -18 -18 -18 -18 -19 -19 -18 -19 -19 -19 -18 -19 -19 -20
-20 -19 -19 -19 -19 -19 -19 -18 -18 -18 -18 -18 -18 -18 -19 -19 -19 -19 -19 -19 -19 -19 -18 -18 -18 -19 -19 -19 -20 -20 -19 -19 -19 -19 -19 -19 -19 -19 -20 -20 -20 -19 -19 -20
-20 -20 -20 -20 -20 -19 -18 -18 -18 -20 -19 -19 -19 -19 -19 -19 -20 -19 -19 -19 -19 -20 -19 -19 -19 -20 -21 -21 -20 -20 -20 -20 -20 -20 -20 -21 -21 -21 -22 -21 -21 -21 -21 -21
-21 -21 -21 -21 -20 -19 -19 -20 -21 -21 -21 -20 -20 -20 -20 -20 -20 -20 -20 -21 -20 -20 -20 -20 -21 -22 -22 -21 -21 -20 -20 -21 -21 -21 -21 -21 -23 -23 -24 -24 -23 -23 -22 -22
-22 -21 -21 -20 -20 -21 -21 -21 -21 -22 -22 -22 -22 -22 -22 -22 -22 -22 -21 -21 -21 -21 -21 -22 -23 -22 -23 -23 -23 -22 -22 -22 -23 -23 -23 -24 -24 -24 -24 -23 -23 -23 -23 -23
-22 -22 -21 -21 -21 -22 -22 -22 -23 -23 -23 -23 -23 -23 -23 -23 -22 -22 -21 -22 -21 -23 -25 -25 -24 -24 -23 -23 -22 -23 -23 -23 -24 -24 -25 -25 -25 -25 -24 -23 -24 -24 -24 -24
-22 -22 -22 -22 -23 -23 -23 -23 -24 -24 -24 -24 -24 -24 -23 -23 -23 -22 -22 -23 -25 -26 -26 -26 -26 -25 -25 -25 -25 -25 -25 -25 -25 -25 -26 -25 -25 -25 -25 -25 -25 -25 -25 -26